[[{"header":{"parameterUnit":"m.s-1","parameterCategory":2,"la1":30.2991,"la2":30.254,"lo1":-89.0895,"lo2":-89.0444,"dy":0.0017,"dx":0.0017,"nx":28,"ny":28,"refTime":"2025-03-10T09:00:00:Z","depth":"0","parameterNumber":2,"parameterNumberName":"U-component_of_CURRENTS"},"data":[0,0,0,0,0,0,0,0,0,0,0,0,0,0,0,0,0,0,0,0,0,0,0,0,0,0,0,0,0,0,0,0,0,0,0,0,0,0,0,0,0,0,0,0,0,0,0,0,0,0,0,0,0,0,0,0,0,0,0.3667,0.3667,0,0.3699,0.3699,0.3699,0.3683,0.3682,0.3682,0.3681,0.3668,0.3668,0.3668,0,0,0,0,0,0,0,0,0,0,0,0,0,0.3594,0.3595,0.3667,0.3667,0.3668,0.3699,0.3699,0.3699,0.3683,0.3682,0.3681,0.3681,0.3668,0.3668,0.3668,0,0,0,0,0,0,0,0,0,0,0,0,0,0.3623,0.3595,0.3666,0.3666,0.3666,0.3699,0.3699,0.3699,0.3683,0.3682,0.3681,0.368,0.3668,0.3668,0.3668,0.3687,0,0,0.3669,0.3669,0,0,0,0,0,0,0,0,0.3621,0.3625,0.3665,0.3666,0.3667,0.3689,0.3669,0.3694,0.3683,0.3673,0.3681,0.368,0.3673,0.3673,0.3677,0.3686,0.3685,0.3669,0.3669,0.3669,0.3669,0,0,0,0,0,0,0,0.3619,0.3623,0.3676,0.3666,0.3667,0.3665,0.3668,0.3673,0.3674,0.3674,0.3674,0.3683,0.3673,0.3677,0.3677,0.3685,0.3669,0.3669,0.3669,0.367,0.3741,0.3743,0,0,0,0,0,0,0.3623,0.3622,0.3675,0.3677,0.3645,0.3667,0.367,0.368,0.3675,0.3675,0.3683,0.3682,0.3677,0.3676,0.3676,0.3723,0.3669,0.367,0.367,0.3739,0.3741,0.3743,0,0,0,0,0,0,0.3621,0.3627,0.3674,0.3653,0.3659,0.367,0.368,0.3681,0.3691,0.3683,0.3681,0.3693,0.3676,0.3676,0.3694,0.3721,0.367,0.367,0.3737,0.374,0.3742,0.3801,0,0,0,0,0,0,0.3619,0.3626,0.3634,0.3653,0.366,0.3702,0.3682,0.3682,0.3699,0.3697,0.3692,0.3689,0.3676,0.3694,0.3694,0.3721,0.367,0.3735,0.3738,0.3742,0.3797,0.3805,0.3812,0,0,0,0,0,0.3616,0.3629,0.3634,0.3641,0.3671,0.3703,0.3707,0.3709,0.37,0.3712,0.3711,0.369,0.3715,0.3696,0.3696,0.3723,0.3733,0.3737,0.3741,0.3793,0.3804,0.3812,0,0,0,0,0,0,0.3598,0.3629,0.3635,0.3656,0.3683,0.3701,0.3713,0.3718,0.3727,0.3724,0.371,0.3708,0.374,0.3726,0.3705,0.3755,0.3722,0.3726,0.3762,0.3771,0.3779,0.3795,0.367,0,0,0,0,0,0.3601,0.3618,0.365,0.3667,0.3683,0.3701,0.3714,0.3722,0.3734,0.3737,0.3735,0.3738,0.3757,0.3758,0.3769,0.3791,0.3806,0.3811,0.3819,0.3825,0.384,0.3887,0.39,0.3756,0.3756,0.3756,0,0,0.3596,0.3618,0.3625,0.3665,0.3683,0.3716,0.3706,0.3734,0.3761,0.3735,0.3763,0.3769,0.3772,0.3803,0.3814,0.3791,0.3877,0.383,0.3836,0.3848,0.3893,0.3907,0.3919,0.3759,0.3758,0.3758,0,0,0.3602,0.3621,0.3639,0.3668,0.3709,0.3728,0.3741,0.377,0.3783,0.3814,0.3811,0.3836,0.3847,0.3863,0.3871,0.3931,0.3924,0.3931,0.3974,0.4019,0.4031,0.4042,0.4089,0.4104,0.3926,0.3926,0.3926,0,0.3596,0.3626,0.365,0.3683,0.3709,0.3737,0.377,0.3796,0.3826,0.3846,0.3829,0.3884,0.3881,0.3937,0.3957,0.3949,0.3973,0.3934,0.4029,0.404,0.405,0.4096,0.4112,0.3929,0.3929,0.3928,0.3928,0,0.3621,0.3648,0.3665,0.3716,0.3749,0.3782,0.3828,0.386,0.3877,0.3901,0.3959,0.3968,0.3998,0.4006,0.3997,0.4073,0.4067,0.404,0.4003,0.4069,0.4113,0.4128,0.3934,0.3933,0.3932,0.3931,0,0,0.3597,0.3667,0.3671,0.3697,0.3769,0.3794,0.3857,0.3918,0.397,0.3992,0.4057,0.4087,0.4096,0.4108,0.4109,0.4145,0.4236,0.4124,0.4125,0.4169,0.4347,0.4346,0.4362,0.4223,0.4226,0.4228,0.4352,0,0.3608,0.3658,0.37,0.3752,0.3784,0.384,0.39,0.396,0.4018,0.409,0.4115,0.4179,0.4135,0.4167,0.4195,0.4239,0.4277,0.4206,0.428,0.4282,0.4272,0.438,0.4349,0.4458,0.4367,0.4369,0.4371,0,0.3615,0.365,0.3696,0.3772,0.3793,0.3835,0.394,0.4001,0.4115,0.4167,0.4232,0.4265,0.4339,0.429,0.4381,0.4338,0.435,0.4369,0.4373,0.4364,0.431,0.4377,0.4488,0.4466,0.4394,0.4392,0.439,0,0.357,0.3643,0.3675,0.3701,0.3797,0.3834,0.3895,0.4014,0.4087,0.4232,0.4299,0.4382,0.4439,0.4471,0.4498,0.4453,0.4601,0.4537,0.4547,0.4547,0.4533,0.4526,0.4629,0.4603,0.4603,0.4602,0.4602,0,0.356,0.3582,0.3653,0.367,0.3726,0.3807,0.3896,0.3988,0.4134,0.4222,0.4327,0.442,0.4488,0.4566,0.4564,0.4623,0.465,0.4595,0.4593,0.4553,0.4547,0.4533,0.4482,0.4607,0.4606,0.4605,0.4604,0,0.3504,0.355,0.3588,0.3675,0.3704,0.3742,0.3879,0.3947,0.4106,0.4234,0.4284,0.4474,0.4599,0.4659,0.4752,0.4717,0.4678,0.4768,0.4723,0.4714,0.4676,0.4628,0.4466,0.4328,0.4811,0.4812,0.4813,0,0.348,0.3492,0.3565,0.3579,0.3616,0.3689,0.374,0.391,0.3994,0.4249,0.4298,0.45,0.4629,0.4804,0.4831,0.4887,0.472,0.4849,0.4749,0.4714,0.466,0.4395,0.4269,0.4759,0.476,0.476,0.476,0,0.343,0.3451,0.3475,0.3511,0.3549,0.3598,0.3689,0.3758,0.3954,0.4097,0.4297,0.4446,0.4678,0.4785,0.4894,0.4898,0.4689,0.4853,0.4837,0.4662,0.4361,0.4215,0.4636,0.4762,0.4762,0.4762,0.4762,0.4762,0.3376,0.3375,0.3403,0.3425,0.3458,0.3483,0.3494,0.362,0.3756,0.3941,0.418,0.438,0.4704,0.4892,0.4848,0.4865,0.4685,0.4802,0.4761,0.4505,0.4323,0.4754,0.4856,0.4856,0.4856,0.4856,0.4857,0,0.3295,0.3297,0.3314,0.3322,0.3303,0.3368,0.343,0.3434,0.3532,0.3797,0.399,0.4376,0.4601,0.4779,0.4956,0.484,0.4539,0.4743,0.4407,0.4293,0.4755,0.4712,0.4764,0.4764,0.4764,0.4764,0.4764,0.4764,0.325,0.322,0.3224,0.3159,0.316,0.3101,0.3105,0.3154,0.3307,0.354,0.3767,0.4021,0.456,0.4991,0.5024,0.4878,0.449,0.4331,0.4201,0.4645,0.4647,0.4649,0.4601,0.4628,0.4628,0.3609,0.3602,0.3597]},{"header":{"parameterUnit":"m.s-1","parameterCategory":2,"la1":30.2991,"la2":30.254,"lo1":-89.0895,"lo2":-89.0444,"dy":0.0017,"dx":0.0017,"nx":28,"ny":28,"refTime":"2025-03-10T09:00:00:Z","depth":"0","parameterNumber":3,"parameterNumberName":"V-component_of_CURRENTS"},"data":[0,0,0,0,0,0,0,0,0,0,0,0,0,0,0,0,0,0,0,0,0,0,0,0,0,0,0,0,0,0,0,0,0,0,0,0,0,0,0,0,0,0,0,0,0,0,0,0,0,0,0,0,0,0,0,0,0,0,0.0225,0.0224,0,0.0156,0.0155,0.0154,0.0101,0.0101,0.0101,0.0101,-0.0002,-0.0005,-0.0007,0,0,0,0,0,0,0,0,0,0,0,0,0,0.0231,0.0232,0.0225,0.0224,0.0223,0.0156,0.0155,0.0154,0.0102,0.0101,0.0101,0.01,-0.0001,-0.0004,-0.0007,0,0,0,0,0,0,0,0,0,0,0,0,0,0.02,0.0232,0.0225,0.0191,0.0187,0.0157,0.0155,0.0154,0.0102,0.0101,0.0101,0.01,-0.0001,-0.0004,-0.0008,-0.0022,0,0,-0.0019,-0.0021,0,0,0,0,0,0,0,0,0.0202,0.02,0.0196,0.0193,0.0189,0.0139,0.012,0.0094,0.0102,0.0132,0.0101,0.01,0.0044,0.0036,0.0021,-0.0027,-0.0031,-0.0019,-0.0022,-0.0023,-0.0024,0,0,0,0,0,0,0,0.0204,0.0202,0.0195,0.0196,0.0191,0.0152,0.0148,0.0114,0.0088,0.0129,0.0126,0.0122,0.0041,0.0025,0.0019,-0.0033,-0.0019,-0.0023,-0.0025,-0.0026,-0.0099,-0.0099,0,0,0,0,0,0,0.0222,0.0205,0.0197,0.0193,0.0197,0.0153,0.0148,0.0154,0.0089,0.008,0.0122,0.012,0.0032,0.0023,0.0015,0.0011,-0.0023,-0.0027,-0.0029,-0.01,-0.0099,-0.0099,0,0,0,0,0,0,0.0223,0.0223,0.02,0.0198,0.0193,0.0154,0.016,0.0153,0.0141,0.0085,0.0075,0.012,0.0031,0.002,-0.0006,0.0006,-0.0028,-0.0032,-0.01,-0.01,-0.0099,-0.0007,0,0,0,0,0,0,0.0224,0.0224,0.0231,0.02,0.0194,0.0196,0.0161,0.0152,0.014,0.0136,0.008,0.0069,0.003,0.0,-0.0009,0.0001,-0.0035,-0.01,-0.01,-0.0099,-0.001,-0.0003,0.0003,0,0,0,0,0,0.0224,0.0247,0.0232,0.0231,0.0207,0.0197,0.0191,0.0158,0.0141,0.0145,0.0105,0.0071,-0.0004,-0.0002,-0.0014,-0.0004,-0.0101,-0.01,-0.0099,-0.0013,-0.0004,0.0003,0,0,0,0,0,0,0.0254,0.0242,0.0226,0.0244,0.0226,0.0189,0.019,0.0167,0.0138,0.0133,0.0077,0.0065,0.0045,0.0007,0.001,-0.0026,-0.0059,-0.006,0.0011,0.0018,0.0025,0.0051,-0.0038,0,0,0,0,0,0.0265,0.0277,0.0255,0.0267,0.0263,0.0226,0.0217,0.0198,0.0169,0.0156,0.0116,0.0072,0.0037,0.002,-0.0018,-0.0034,-0.0077,-0.0037,-0.0031,-0.0025,-0.0012,-0.007,-0.0067,-0.0097,-0.0097,-0.0097,0,0,0.0279,0.0274,0.0279,0.0273,0.0255,0.0267,0.0219,0.0217,0.0223,0.0149,0.0143,0.0094,0.0038,0.0019,0.0007,-0.0009,-0.0039,-0.0024,-0.0019,-0.0009,-0.0069,-0.0066,-0.0063,-0.0097,-0.0097,-0.0097,0,0,0.032,0.031,0.0335,0.033,0.0317,0.0297,0.0303,0.0273,0.0256,0.0242,0.019,0.0153,0.0102,0.0065,0.0039,0.0058,-0.0004,0.0042,0.0098,0.0041,0.0044,0.0045,-0.0002,-0.0006,0.0046,0.0046,0.0046,0,0.0335,0.0369,0.0339,0.0365,0.0373,0.032,0.0354,0.0329,0.0294,0.0287,0.0254,0.0175,0.0125,0.0102,0.0105,0.0074,0.0033,0.0076,0.0051,0.0052,0.0052,0.0002,-0.0003,0.0051,0.005,0.005,0.0049,0,0.04,0.0424,0.044,0.0457,0.0459,0.0478,0.045,0.044,0.0408,0.0381,0.0347,0.0269,0.0225,0.0196,0.0156,0.0134,0.0103,0.0067,0.0037,0.006,0.0007,-0.0,0.0057,0.0055,0.0054,0.0053,0,0,0.0443,0.048,0.0485,0.0517,0.0514,0.0529,0.0535,0.0533,0.0549,0.048,0.0486,0.0403,0.0353,0.032,0.0254,0.02,0.0158,0.0142,0.0137,0.0105,0.0038,0.0018,0.0008,0.0116,0.0115,0.0114,0.0003,0,0.0502,0.058,0.0577,0.0647,0.0688,0.0654,0.0668,0.0654,0.0626,0.0614,0.0514,0.0492,0.0402,0.0384,0.0314,0.0202,0.0143,0.0192,0.0011,0.0007,-0.0007,0.0,0.0027,-0.007,-0.0004,-0.0006,-0.0007,0,0.0569,0.0616,0.07,0.0757,0.0771,0.0796,0.0823,0.0837,0.0795,0.0772,0.0717,0.0638,0.0552,0.0469,0.0285,0.0319,0.0194,0.0093,0.0086,0.0032,-0.0027,-0.0086,-0.0086,-0.0317,-0.0018,-0.0017,-0.0016,0,0.0628,0.0704,0.0779,0.0799,0.0846,0.0871,0.0892,0.0882,0.0922,0.0878,0.0888,0.0758,0.0708,0.0528,0.0317,0.0301,0.0107,0.0056,-0.0084,-0.0087,-0.0116,-0.012,-0.035,-0.0074,-0.0074,-0.0074,-0.0074,0,0.07,0.0759,0.0813,0.0857,0.0951,0.095,0.104,0.1035,0.1053,0.1115,0.098,0.0991,0.0719,0.0573,0.0361,0.0126,0.0137,-0.0068,-0.0116,-0.0083,-0.0082,-0.0327,-0.049,-0.0078,-0.0077,-0.0076,-0.0076,0,0.0755,0.0786,0.0884,0.0954,0.0985,0.1054,0.1159,0.1224,0.1217,0.1291,0.1285,0.1167,0.0979,0.0697,0.041,0.0206,-0.0179,-0.0119,-0.0057,-0.0095,-0.0439,-0.0597,-0.0893,-0.1022,-0.029,-0.0291,-0.0292,0,0.0791,0.0846,0.0965,0.1037,0.1075,0.1182,0.126,0.1304,0.1394,0.1413,0.1462,0.1303,0.1242,0.0807,0.0401,0.0024,-0.0222,-0.0205,-0.0237,-0.0452,-0.0664,-0.0764,-0.0858,-0.0244,-0.0244,-0.0245,-0.0245,0,0.0864,0.09,0.0984,0.1139,0.1241,0.138,0.1499,0.16,0.1656,0.1721,0.1786,0.1738,0.1315,0.0961,0.0419,0.0136,-0.0387,-0.0224,-0.0472,-0.0666,-0.0768,-0.0914,-0.0178,-0.0249,-0.0248,-0.0248,-0.0248,-0.0248,0.0913,0.099,0.1102,0.1253,0.1381,0.1558,0.1701,0.1843,0.2011,0.2156,0.2072,0.2099,0.1536,0.0813,0.0349,-0.0412,-0.0448,-0.0609,-0.0786,-0.0868,-0.0988,-0.0251,-0.0362,-0.0362,-0.0362,-0.0362,-0.0362,0,0.098,0.1072,0.1213,0.1398,0.156,0.1619,0.1851,0.202,0.2252,0.2409,0.2494,0.2311,0.1571,0.0819,-0.0223,-0.0811,-0.105,-0.1152,-0.1298,-0.1372,-0.0727,-0.0717,-0.0879,-0.0879,-0.0878,-0.0878,-0.0878,-0.0878,0.1017,0.1158,0.1239,0.1514,0.1656,0.1905,0.2058,0.2312,0.2511,0.2793,0.2903,0.2933,0.2436,0.0363,-0.0979,-0.1324,-0.1761,-0.189,-0.2113,-0.1678,-0.164,-0.1603,-0.163,-0.198,-0.1982,-0.2641,-0.2649,-0.2654]}],[{"header":{"parameterUnit":"m.s-1","parameterCategory":2,"la1":30.2991,"la2":30.254,"lo1":-89.0895,"lo2":-89.0444,"dy":0.0017,"dx":0.0017,"nx":28,"ny":28,"refTime":"2025-03-10T09:00:00:Z","depth":"2","parameterNumber":2,"parameterNumberName":"U-component_of_CURRENTS"},"data":[0,0,0,0,0,0,0,0,0,0,0,0,0,0,0,0,0,0,0,0,0,0,0,0,0,0,0,0,0,0,0,0,0,0,0,0,0,0,0,0,0,0,0,0,0,0,0,0,0,0,0,0,0,0,0,0,0,0,0.3526,0.3526,0,0.3558,0.3558,0.3558,0.3547,0.3546,0.3546,0.3545,0.3538,0.3538,0.3538,0,0,0,0,0,0,0,0,0,0,0,0,0,0.3453,0.3455,0.3525,0.3526,0.3527,0.3558,0.3558,0.3558,0.3547,0.3546,0.3546,0.3545,0.3538,0.3538,0.3538,0,0,0,0,0,0,0,0,0,0,0,0,0,0.3482,0.3455,0.3525,0.3527,0.3528,0.3558,0.3558,0.3558,0.3547,0.3546,0.3546,0.3545,0.3538,0.3538,0.3538,0.3553,0,0,0.3539,0.3539,0,0,0,0,0,0,0,0,0.3481,0.3484,0.3526,0.3527,0.3528,0.355,0.353,0.3556,0.3547,0.3536,0.3545,0.3545,0.3541,0.3541,0.3544,0.3552,0.3552,0.3539,0.3539,0.3539,0.3539,0,0,0,0,0,0,0,0.3479,0.3483,0.3535,0.3527,0.3528,0.3527,0.353,0.3535,0.3539,0.3537,0.3537,0.3546,0.354,0.3544,0.3544,0.3552,0.3539,0.3539,0.3539,0.354,0.3612,0.3613,0,0,0,0,0,0,0.3482,0.3481,0.3534,0.3536,0.3506,0.3529,0.3532,0.3541,0.3539,0.354,0.3547,0.3546,0.3544,0.3544,0.3544,0.3594,0.3539,0.354,0.354,0.361,0.3612,0.3614,0,0,0,0,0,0,0.348,0.3486,0.3533,0.3512,0.3518,0.3531,0.3541,0.3542,0.3555,0.3548,0.3546,0.356,0.3543,0.3543,0.3563,0.3592,0.354,0.354,0.3608,0.361,0.3613,0.3672,0,0,0,0,0,0,0.3478,0.3486,0.3495,0.3512,0.352,0.3561,0.3542,0.3544,0.3563,0.3561,0.3558,0.3556,0.3543,0.3563,0.3564,0.3591,0.354,0.3606,0.3609,0.3612,0.3668,0.3677,0.3684,0,0,0,0,0,0.3475,0.3489,0.3495,0.3501,0.3531,0.3562,0.3566,0.357,0.3564,0.3577,0.3577,0.3557,0.3584,0.3565,0.3565,0.3593,0.3604,0.3608,0.3612,0.3665,0.3675,0.3684,0,0,0,0,0,0,0.346,0.349,0.3496,0.3518,0.3544,0.3561,0.3575,0.358,0.3591,0.359,0.3577,0.3576,0.3609,0.3595,0.3574,0.3626,0.3592,0.3596,0.3633,0.3642,0.365,0.3666,0.354,0,0,0,0,0,0.3463,0.348,0.3511,0.3529,0.3545,0.3563,0.3577,0.3585,0.3598,0.3603,0.3602,0.3607,0.3625,0.3627,0.3639,0.3662,0.3675,0.3682,0.369,0.3696,0.3711,0.3756,0.3769,0.3627,0.3627,0.3627,0,0,0.346,0.3481,0.3489,0.3527,0.3546,0.3578,0.3569,0.3599,0.3625,0.3601,0.3631,0.3638,0.364,0.3672,0.3684,0.3661,0.3747,0.3701,0.3707,0.3718,0.3762,0.3776,0.3788,0.3629,0.3629,0.3628,0,0,0.3466,0.3486,0.3505,0.3533,0.3574,0.3592,0.3606,0.3635,0.3649,0.3682,0.3679,0.3706,0.3717,0.3733,0.3741,0.3801,0.3794,0.3802,0.3846,0.3889,0.3901,0.3912,0.3958,0.3972,0.3797,0.3797,0.3798,0,0.3463,0.3492,0.3516,0.3548,0.3574,0.3603,0.3634,0.3661,0.3692,0.3713,0.3698,0.3754,0.3751,0.3806,0.3826,0.3819,0.3843,0.3806,0.39,0.391,0.392,0.3965,0.398,0.3801,0.38,0.38,0.38,0,0.3488,0.3514,0.3532,0.3582,0.3614,0.3647,0.3692,0.3725,0.3744,0.3768,0.3827,0.3837,0.3868,0.3876,0.3867,0.3942,0.3937,0.391,0.3874,0.3938,0.3981,0.3996,0.3806,0.3804,0.3803,0.3803,0,0,0.3466,0.3534,0.3538,0.3564,0.3635,0.3659,0.3722,0.3781,0.3834,0.3858,0.3923,0.3953,0.3964,0.3976,0.3978,0.4014,0.4104,0.3994,0.3995,0.4038,0.4212,0.4207,0.4222,0.4092,0.4094,0.4096,0.4218,0,0.3478,0.3527,0.3567,0.3619,0.365,0.3705,0.3764,0.3823,0.3881,0.3953,0.3979,0.4043,0.4002,0.4036,0.4064,0.4107,0.4144,0.4075,0.4146,0.4148,0.4133,0.4239,0.3892,0.397,0.4232,0.4234,0.4236,0,0.3486,0.3519,0.3565,0.3639,0.366,0.3702,0.3805,0.3865,0.3978,0.403,0.4095,0.4129,0.4203,0.4156,0.4246,0.4205,0.4217,0.4235,0.4239,0.4224,0.417,0.3947,0.3987,0.426,0.4258,0.4256,0.4255,0,0.3444,0.3515,0.3546,0.3571,0.3665,0.3703,0.3763,0.388,0.3952,0.4095,0.4163,0.4245,0.4302,0.4334,0.4361,0.4318,0.4461,0.4398,0.4404,0.4403,0.4118,0.4088,0.4463,0.4463,0.4462,0.4462,0.4462,0,0.3435,0.3457,0.3527,0.3544,0.36,0.3679,0.3768,0.3859,0.4002,0.4088,0.4193,0.4283,0.4351,0.4426,0.4425,0.448,0.4509,0.445,0.4448,0.4131,0.4103,0.435,0.4335,0.4467,0.4466,0.4465,0.4464,0,0.3382,0.3427,0.3464,0.355,0.3579,0.362,0.3755,0.382,0.3979,0.4104,0.4155,0.4339,0.4459,0.4518,0.4608,0.4571,0.4618,0.4617,0.4256,0.4212,0.4512,0.4499,0.4652,0.4653,0.4654,0.4654,0.4655,0,0.3359,0.3371,0.3445,0.346,0.3497,0.3571,0.3621,0.3788,0.3869,0.4119,0.4166,0.4364,0.448,0.4646,0.4617,0.4656,0.4685,0.4359,0.4217,0.4557,0.4539,0.4524,0.451,0.3854,0.3848,0.3843,0.3839,0,0.3311,0.3334,0.3357,0.3395,0.3434,0.3481,0.3571,0.3638,0.3831,0.3966,0.4157,0.4294,0.4468,0.439,0.447,0.4425,0.4331,0.4268,0.471,0.3883,0.3821,0.3798,0.3807,0.3796,0.38,0.3803,0.3806,0.3808,0.3261,0.326,0.3288,0.3312,0.3346,0.3369,0.338,0.3486,0.3611,0.374,0.3984,0.4055,0.4145,0.4111,0.4007,0.3909,0.4201,0.3998,0.4005,0.4019,0.3929,0.3874,0.3842,0.3846,0.385,0.3853,0.3856,0,0.3173,0.3185,0.3202,0.3211,0.318,0.3258,0.3317,0.3277,0.3344,0.3501,0.3635,0.3432,0.3458,0.3513,0.3319,0.3369,0.3237,0.3225,0.3002,0.3054,0.3098,0.2949,0.2607,0.2603,0.2598,0.2594,0,0,0.3127,0.3092,0.3096,0.3025,0.3037,0.2955,0.2958,0.2931,0.2982,0.2967,0.2984,0.327,0.3448,0.2962,0.2939,0.2733,0.2844,0.2626,0.3646,0.3438,0.3474,0.3592,0.3432,0,0,0,0,0]},{"header":{"parameterUnit":"m.s-1","parameterCategory":2,"la1":30.2991,"la2":30.254,"lo1":-89.0895,"lo2":-89.0444,"dy":0.0017,"dx":0.0017,"nx":28,"ny":28,"refTime":"2025-03-10T09:00:00:Z","depth":"2","parameterNumber":3,"parameterNumberName":"V-component_of_CURRENTS"},"data":[0,0,0,0,0,0,0,0,0,0,0,0,0,0,0,0,0,0,0,0,0,0,0,0,0,0,0,0,0,0,0,0,0,0,0,0,0,0,0,0,0,0,0,0,0,0,0,0,0,0,0,0,0,0,0,0,0,0,0.0248,0.0248,0,0.0181,0.018,0.0179,0.0127,0.0127,0.0127,0.0126,0.0025,0.0022,0.002,0,0,0,0,0,0,0,0,0,0,0,0,0,0.0255,0.0255,0.0248,0.0247,0.0247,0.0181,0.018,0.0179,0.0127,0.0127,0.0126,0.0126,0.0026,0.0023,0.002,0,0,0,0,0,0,0,0,0,0,0,0,0,0.0224,0.0255,0.0248,0.0215,0.0211,0.0181,0.018,0.0179,0.0127,0.0127,0.0126,0.0126,0.0026,0.0023,0.0019,0.0006,0,0,0.0008,0.0007,0,0,0,0,0,0,0,0,0.0226,0.0224,0.022,0.0217,0.0213,0.0164,0.0145,0.012,0.0127,0.0157,0.0126,0.0126,0.007,0.0063,0.0048,0.0001,-0.0003,0.0008,0.0006,0.0004,0.0003,0,0,0,0,0,0,0,0.0229,0.0226,0.0219,0.022,0.0215,0.0177,0.0173,0.014,0.0114,0.0154,0.0151,0.0147,0.0067,0.0052,0.0046,-0.0005,0.0008,0.0005,0.0003,0.0001,-0.0071,-0.0071,0,0,0,0,0,0,0.0246,0.0229,0.0221,0.0218,0.0221,0.0178,0.0173,0.0178,0.0115,0.0106,0.0148,0.0145,0.0058,0.005,0.0042,0.0038,0.0004,0.0001,-0.0001,-0.0071,-0.0071,-0.007,0,0,0,0,0,0,0.0247,0.0246,0.0224,0.0222,0.0217,0.0179,0.0185,0.0177,0.0166,0.0111,0.0101,0.0145,0.0058,0.0047,0.0022,0.0033,-0.0001,-0.0004,-0.0071,-0.0071,-0.0071,0.002,0,0,0,0,0,0,0.0247,0.0247,0.0255,0.0224,0.0218,0.022,0.0185,0.0176,0.0165,0.0161,0.0105,0.0095,0.0057,0.0027,0.0018,0.0027,-0.0007,-0.0072,-0.0071,-0.0071,0.0017,0.0024,0.0029,0,0,0,0,0,0.0248,0.027,0.0256,0.0255,0.0231,0.0221,0.0215,0.0183,0.0166,0.0169,0.013,0.0097,0.0024,0.0025,0.0014,0.0022,-0.0072,-0.0071,-0.0071,0.0014,0.0022,0.0029,0,0,0,0,0,0,0.0277,0.0266,0.025,0.0267,0.0249,0.0213,0.0214,0.0192,0.0163,0.0158,0.0103,0.0091,0.0071,0.0034,0.0037,0.0002,-0.0031,-0.0032,0.0037,0.0045,0.0051,0.0077,-0.001,0,0,0,0,0,0.0288,0.03,0.0278,0.0289,0.0285,0.0249,0.024,0.0222,0.0193,0.018,0.0141,0.0098,0.0064,0.0046,0.0009,-0.0006,-0.0049,-0.001,-0.0004,0.0002,0.0015,-0.0043,-0.004,-0.0068,-0.0068,-0.0068,0,0,0.0301,0.0296,0.0302,0.0296,0.0277,0.0289,0.0243,0.024,0.0246,0.0173,0.0168,0.0119,0.0064,0.0046,0.0033,0.0018,-0.0013,0.0003,0.0008,0.0018,-0.0042,-0.0039,-0.0037,-0.0068,-0.0068,-0.0068,0,0,0.0342,0.0331,0.0356,0.0351,0.0338,0.0319,0.0324,0.0295,0.0278,0.0264,0.0214,0.0177,0.0126,0.009,0.0064,0.0083,0.0022,0.0067,0.0122,0.0066,0.0068,0.0069,0.0022,0.0018,0.0071,0.0072,0.0072,0,0.0356,0.0389,0.036,0.0385,0.0393,0.0341,0.0374,0.035,0.0315,0.0308,0.0276,0.0198,0.0149,0.0126,0.013,0.0099,0.0058,0.0101,0.0076,0.0076,0.0076,0.0026,0.0021,0.0076,0.0075,0.0075,0.0075,0,0.0419,0.0443,0.0458,0.0475,0.0477,0.0496,0.0468,0.0458,0.0427,0.04,0.0366,0.0289,0.0247,0.0218,0.0179,0.0157,0.0126,0.0091,0.0061,0.0084,0.003,0.0023,0.0082,0.0081,0.0079,0.0078,0,0,0.0461,0.0498,0.0503,0.0534,0.0531,0.0545,0.0552,0.0549,0.0564,0.0497,0.0502,0.0421,0.0372,0.0339,0.0274,0.0221,0.0178,0.0164,0.0159,0.0127,0.0059,0.0037,0.0026,0.0137,0.0136,0.0136,0.0023,0,0.0519,0.0595,0.0593,0.0662,0.0701,0.0668,0.0682,0.0667,0.064,0.0627,0.0529,0.0507,0.042,0.0401,0.0332,0.0221,0.0164,0.0213,0.0033,0.0028,0.0013,0.0018,0.0043,-0.0055,0.0016,0.0015,0.0014,0,0.0584,0.0631,0.0713,0.077,0.0783,0.0808,0.0834,0.0846,0.0805,0.0781,0.0727,0.0649,0.0564,0.0484,0.0301,0.0336,0.0212,0.0113,0.0105,0.005,-0.0007,-0.0069,-0.0071,0.0001,0.0002,0.0003,0.0004,0,0.0642,0.0716,0.079,0.081,0.0857,0.0881,0.0902,0.0891,0.0929,0.0885,0.0895,0.0766,0.0715,0.0538,0.033,0.0315,0.0122,0.0074,-0.0066,-0.007,-0.01,-0.0104,-0.0056,-0.0056,-0.0056,-0.0055,-0.0055,0,0.0712,0.0771,0.0824,0.0867,0.096,0.0958,0.1046,0.1041,0.1058,0.1118,0.0985,0.0993,0.0726,0.058,0.0372,0.0139,0.015,-0.0052,-0.0099,-0.0068,-0.0068,-0.0061,-0.006,-0.006,-0.0059,-0.0058,-0.0057,0,0.0766,0.0797,0.0894,0.0962,0.0993,0.1061,0.1164,0.1227,0.1219,0.1291,0.1283,0.1164,0.0976,0.0699,0.0414,0.0214,-0.0019,-0.0106,-0.0047,-0.0086,-0.0187,-0.018,-0.0274,-0.0276,-0.0278,-0.0279,-0.028,0,0.0802,0.0856,0.0973,0.1044,0.1082,0.1187,0.1263,0.1306,0.1393,0.1408,0.1454,0.1294,0.1226,0.0795,0.0395,0.0022,-0.0022,-0.0198,-0.0227,-0.0171,-0.0209,-0.0199,-0.0191,-0.0237,-0.0238,-0.0238,-0.0239,0,0.0873,0.0909,0.0992,0.1144,0.1245,0.1381,0.1497,0.1595,0.1648,0.1706,0.1762,0.1708,0.1286,0.0913,0.0379,0.0123,-0.0141,-0.0219,-0.0184,-0.0176,-0.0143,-0.0177,-0.0169,-0.0243,-0.0242,-0.0242,-0.0242,-0.0242,0.0922,0.0997,0.1108,0.1256,0.1382,0.1555,0.1695,0.182,0.1976,0.2073,0.2003,0.1927,0.1469,0.0801,0.0328,-0.0181,-0.0152,-0.032,-0.0316,-0.0312,-0.0278,-0.0249,-0.0362,-0.0362,-0.0362,-0.0362,-0.0363,0,0.0986,0.1078,0.1216,0.1399,0.1553,0.1616,0.1841,0.1976,0.2178,0.2236,0.228,0.186,0.1414,0.0883,0.0131,-0.0301,-0.034,-0.0439,-0.039,-0.0382,-0.0376,-0.0344,-0.0447,-0.0448,-0.0449,-0.0451,0,0,0.1022,0.116,0.1239,0.1505,0.1646,0.1878,0.2027,0.2212,0.232,0.2403,0.2355,0.2226,0.1583,0.1031,0.0419,-0.0013,-0.0093,-0.0101,0.0014,0.0152,0.0164,-0.0263,-0.0199,0,0,0,0,0]}],[{"header":{"parameterUnit":"m.s-1","parameterCategory":2,"la1":30.2991,"la2":30.254,"lo1":-89.0895,"lo2":-89.0444,"dy":0.0017,"dx":0.0017,"nx":28,"ny":28,"refTime":"2025-03-10T09:00:00:Z","depth":"4","parameterNumber":2,"parameterNumberName":"U-component_of_CURRENTS"},"data":[0,0,0,0,0,0,0,0,0,0,0,0,0,0,0,0,0,0,0,0,0,0,0,0,0,0,0,0,0,0,0,0,0,0,0,0,0,0,0,0,0,0,0,0,0,0,0,0,0,0,0,0,0,0,0,0,0,0,0.2218,0.2219,0,0.2309,0.2309,0.231,0.2383,0.2384,0.2385,0.2385,0.2491,0.2493,0.2495,0,0,0,0,0,0,0,0,0,0,0,0,0,0.2097,0.2098,0.2218,0.2219,0.222,0.2308,0.2309,0.231,0.2382,0.2384,0.2385,0.2386,0.249,0.2492,0.2495,0,0,0,0,0,0,0,0,0,0,0,0,0,0.2162,0.2099,0.2217,0.2269,0.2274,0.2308,0.2309,0.2311,0.2382,0.2384,0.2385,0.2386,0.2489,0.2492,0.2495,0.2485,0,0,0.2504,0.2505,0,0,0,0,0,0,0,0,0.2158,0.2166,0.226,0.2265,0.2272,0.2338,0.2306,0.237,0.2382,0.2339,0.2385,0.2387,0.2441,0.2448,0.2459,0.249,0.2494,0.2504,0.2506,0.2507,0.2508,0,0,0,0,0,0,0,0.2154,0.2163,0.2251,0.2261,0.2268,0.2284,0.2295,0.2318,0.2379,0.2343,0.2349,0.2362,0.2445,0.2456,0.2462,0.2496,0.2504,0.2507,0.2508,0.251,0.2671,0.2673,0,0,0,0,0,0,0.2147,0.2159,0.2248,0.2254,0.222,0.2285,0.2297,0.2313,0.2379,0.2391,0.2361,0.2365,0.245,0.2458,0.2466,0.2591,0.2507,0.251,0.2512,0.2668,0.2671,0.2674,0,0,0,0,0,0,0.2144,0.2154,0.2245,0.221,0.2223,0.2286,0.2303,0.2314,0.2376,0.2393,0.2405,0.2417,0.2452,0.2462,0.2536,0.2591,0.2511,0.2514,0.2665,0.2669,0.2673,0.2755,0,0,0,0,0,0,0.214,0.2152,0.2184,0.221,0.2225,0.2297,0.2303,0.2315,0.238,0.2388,0.2445,0.2453,0.2453,0.2532,0.2539,0.2593,0.2516,0.2662,0.2667,0.2672,0.2749,0.2762,0.2772,0,0,0,0,0,0.2135,0.2163,0.2185,0.2197,0.2259,0.2299,0.2309,0.2355,0.2382,0.2415,0.2461,0.2454,0.2567,0.2536,0.2544,0.26,0.266,0.2666,0.2671,0.2744,0.2759,0.2772,0,0,0,0,0,0,0.2129,0.2174,0.2199,0.2242,0.2284,0.2313,0.2355,0.2383,0.2444,0.2469,0.2483,0.2495,0.2582,0.258,0.2545,0.2662,0.2614,0.2621,0.2667,0.2681,0.2692,0.2696,0.2519,0,0,0,0,0,0.2141,0.2179,0.2218,0.226,0.2286,0.233,0.2363,0.2396,0.2441,0.2472,0.2512,0.2558,0.2602,0.2634,0.2668,0.2728,0.273,0.2771,0.2782,0.2792,0.2802,0.2848,0.2865,0.2693,0.2693,0.2693,0,0,0.215,0.2183,0.2206,0.2263,0.2303,0.2346,0.2355,0.2419,0.2469,0.2472,0.257,0.2603,0.2628,0.2701,0.274,0.2713,0.2845,0.2799,0.2807,0.2812,0.2856,0.2873,0.2887,0.2697,0.2696,0.2696,0,0,0.2171,0.2221,0.2256,0.2296,0.2365,0.2392,0.2422,0.2483,0.2532,0.2612,0.2635,0.2704,0.2769,0.2799,0.2819,0.2912,0.2905,0.2934,0.2994,0.3039,0.3053,0.3066,0.3097,0.3112,0.2937,0.2937,0.2937,0,0.2187,0.2232,0.2274,0.2317,0.2361,0.2418,0.2467,0.2519,0.2601,0.2647,0.2661,0.2788,0.2812,0.2895,0.2935,0.2938,0.296,0.2937,0.3053,0.3065,0.3076,0.3105,0.312,0.2941,0.2941,0.294,0.294,0,0.2218,0.2275,0.2303,0.2378,0.2428,0.2484,0.2552,0.2625,0.2692,0.2737,0.2855,0.2898,0.2971,0.2995,0.2997,0.3099,0.3088,0.3062,0.3014,0.3098,0.3124,0.3138,0.2948,0.2946,0.2945,0.2944,0,0,0.2194,0.2304,0.2319,0.2366,0.2469,0.2506,0.2608,0.2699,0.278,0.2866,0.2965,0.3048,0.3087,0.3113,0.3135,0.318,0.3282,0.3168,0.3168,0.3191,0.3389,0.3184,0.3179,0.3282,0.3285,0.3287,0.3377,0,0.2213,0.2292,0.2351,0.2443,0.249,0.2581,0.2667,0.2763,0.2859,0.297,0.3036,0.3143,0.3127,0.3192,0.3233,0.3281,0.3323,0.326,0.331,0.3312,0.3112,0.3189,0.3296,0.3387,0.339,0.3392,0.3394,0,0.2215,0.2272,0.236,0.248,0.2514,0.2589,0.2742,0.283,0.2985,0.3066,0.3174,0.3235,0.3344,0.3313,0.3419,0.3387,0.3402,0.3417,0.342,0.3207,0.3132,0.3284,0.3419,0.3417,0.3415,0.3413,0.3412,0,0.2152,0.2274,0.2347,0.2388,0.2534,0.2612,0.2709,0.2866,0.296,0.315,0.3235,0.3355,0.3443,0.3485,0.3522,0.3495,0.3616,0.357,0.3393,0.3379,0.3499,0.3485,0.3635,0.3634,0.3634,0.3634,0.3634,0,0.212,0.2183,0.2335,0.2372,0.2481,0.26,0.274,0.286,0.3039,0.3138,0.3289,0.3371,0.3496,0.3568,0.3573,0.3523,0.3654,0.3417,0.3391,0.3533,0.3522,0.3509,0.3494,0.3637,0.3637,0.3636,0.3635,0,0.2032,0.2132,0.2223,0.2391,0.2455,0.2538,0.2747,0.2831,0.3029,0.3169,0.3239,0.3426,0.3516,0.3596,0.3681,0.3568,0.3558,0.3505,0.3672,0.3653,0.328,0.3269,0.3311,0.3305,0.3299,0.3295,0.3291,0,0.1988,0.2029,0.2214,0.2271,0.2359,0.2504,0.2592,0.2808,0.2893,0.3157,0.3193,0.3377,0.3465,0.3419,0.3522,0.3522,0.3473,0.3442,0.3336,0.3278,0.325,0.3246,0.3242,0.3282,0.3281,0.328,0.3278,0,0.19,0.1988,0.206,0.2181,0.2286,0.2383,0.2531,0.2579,0.2806,0.3003,0.3077,0.3135,0.323,0.3283,0.3317,0.3303,0.3447,0.3384,0.3394,0.3294,0.3243,0.322,0.3222,0.3259,0.3262,0.3264,0.3265,0,0.1839,0.1864,0.1972,0.2058,0.2178,0.2224,0.2324,0.2415,0.253,0.281,0.2825,0.3014,0.3193,0.3171,0.3197,0.3179,0.3119,0.2997,0.3025,0.3048,0.2917,0.2812,0.2682,0,0,0,0,0,0.1759,0.1766,0.1836,0.1914,0.202,0.209,0.2257,0.2356,0.2571,0.2549,0.2684,0.2758,0.2817,0.2921,0.2848,0.308,0.3132,0.298,0.3005,0.3154,0.3176,0.3046,0,0,0,0,0,0,0.1702,0.1759,0.1779,0.1772,0.1794,0.189,0.1986,0.2132,0.2136,0.2364,0.2413,0.2581,0.2683,0.2823,0.279,0.2819,0.2776,0.3104,0.3096,0.3142,0.3162,0.3179,0.3053,0,0,0,0,0]},{"header":{"parameterUnit":"m.s-1","parameterCategory":2,"la1":30.2991,"la2":30.254,"lo1":-89.0895,"lo2":-89.0444,"dy":0.0017,"dx":0.0017,"nx":28,"ny":28,"refTime":"2025-03-10T09:00:00:Z","depth":"4","parameterNumber":3,"parameterNumberName":"V-component_of_CURRENTS"},"data":[0,0,0,0,0,0,0,0,0,0,0,0,0,0,0,0,0,0,0,0,0,0,0,0,0,0,0,0,0,0,0,0,0,0,0,0,0,0,0,0,0,0,0,0,0,0,0,0,0,0,0,0,0,0,0,0,0,0,0.024,0.024,0,0.0197,0.0196,0.0196,0.0164,0.0164,0.0164,0.0164,0.0088,0.0086,0.0084,0,0,0,0,0,0,0,0,0,0,0,0,0,0.0244,0.0244,0.024,0.024,0.0239,0.0197,0.0196,0.0195,0.0164,0.0164,0.0164,0.0164,0.0089,0.0086,0.0084,0,0,0,0,0,0,0,0,0,0,0,0,0,0.0224,0.0244,0.024,0.022,0.0217,0.0197,0.0196,0.0195,0.0164,0.0164,0.0164,0.0163,0.0089,0.0087,0.0084,0.0071,0,0,0.0075,0.0074,0,0,0,0,0,0,0,0,0.0225,0.0224,0.0223,0.0221,0.0219,0.0187,0.017,0.0152,0.0164,0.0183,0.0164,0.0163,0.0119,0.0114,0.0105,0.0067,0.0064,0.0075,0.0073,0.0072,0.0071,0,0,0,0,0,0,0,0.0227,0.0225,0.0222,0.0223,0.022,0.0195,0.0192,0.0166,0.0151,0.0181,0.0179,0.0177,0.0117,0.0107,0.0103,0.0063,0.0075,0.0072,0.0071,0.007,0.0011,0.0011,0,0,0,0,0,0,0.0238,0.0227,0.0223,0.022,0.0223,0.0195,0.0192,0.0196,0.0152,0.0146,0.0177,0.0175,0.0112,0.0106,0.01,0.0098,0.0072,0.0069,0.0068,0.0011,0.0011,0.0011,0,0,0,0,0,0,0.0238,0.0238,0.0225,0.0223,0.022,0.0196,0.02,0.0195,0.0191,0.0149,0.0142,0.0178,0.0112,0.0104,0.0085,0.0094,0.0068,0.0066,0.0011,0.0011,0.0011,0.0083,0,0,0,0,0,0,0.0239,0.0239,0.0247,0.0224,0.0221,0.0223,0.02,0.0195,0.019,0.0187,0.0148,0.014,0.0111,0.009,0.0082,0.0089,0.0063,0.001,0.0011,0.0011,0.008,0.0086,0.009,0,0,0,0,0,0.0239,0.0255,0.0247,0.0247,0.0232,0.0224,0.022,0.02,0.019,0.0194,0.0166,0.0142,0.0086,0.0088,0.0079,0.0086,0.001,0.0011,0.0011,0.0078,0.0085,0.009,0,0,0,0,0,0,0.0261,0.0253,0.0244,0.0257,0.0245,0.0219,0.0222,0.0207,0.0188,0.0187,0.0146,0.0137,0.0122,0.0093,0.0096,0.0068,0.0043,0.0041,0.0097,0.0102,0.0107,0.0128,0.0061,0,0,0,0,0,0.027,0.028,0.0264,0.0273,0.0271,0.0247,0.0242,0.023,0.021,0.0202,0.0174,0.0142,0.0115,0.0102,0.0073,0.0061,0.0023,0.0057,0.0062,0.0067,0.0077,0.0025,0.0026,0.0012,0.0012,0.0012,0,0,0.028,0.0277,0.0282,0.0278,0.0267,0.0276,0.0243,0.0243,0.0249,0.0196,0.0195,0.0158,0.0115,0.0101,0.0091,0.008,0.005,0.0067,0.0071,0.0079,0.0025,0.0026,0.0028,0.0012,0.0012,0.0012,0,0,0.0309,0.0305,0.0324,0.0321,0.0313,0.03,0.0305,0.0285,0.0275,0.0267,0.0229,0.0202,0.0164,0.0135,0.0114,0.0128,0.0077,0.0115,0.0158,0.0108,0.0109,0.0109,0.0063,0.0058,0.0119,0.0119,0.0119,0,0.0321,0.0346,0.0326,0.0345,0.0353,0.0318,0.0343,0.0327,0.0303,0.03,0.0278,0.0218,0.018,0.016,0.0164,0.014,0.0103,0.0143,0.0115,0.0114,0.0114,0.0066,0.006,0.0122,0.0122,0.0122,0.0121,0,0.0364,0.0385,0.0397,0.0412,0.0416,0.0431,0.0413,0.0409,0.039,0.0371,0.0346,0.0287,0.0255,0.0232,0.0203,0.0181,0.0154,0.0127,0.0105,0.012,0.0068,0.0061,0.0127,0.0126,0.0125,0.0124,0,0,0.039,0.0423,0.0428,0.0455,0.0458,0.0469,0.0477,0.0478,0.0492,0.0444,0.0448,0.0386,0.0351,0.0325,0.0275,0.0227,0.0186,0.0183,0.0179,0.0146,0.0075,0.0059,0.0048,0.0153,0.0152,0.0152,0.0042,0,0.0431,0.0489,0.0492,0.0548,0.0579,0.0561,0.0575,0.0568,0.055,0.0542,0.0467,0.0452,0.0387,0.0374,0.0316,0.0222,0.017,0.0219,0.0059,0.0054,0.0044,0.0041,0.0149,0.0037,0.0035,0.0034,0.0033,0,0.0473,0.051,0.0577,0.0629,0.0641,0.0667,0.0694,0.0706,0.0678,0.0662,0.0621,0.0562,0.0492,0.0432,0.0274,0.0308,0.0204,0.012,0.0113,0.007,0.0024,0.0016,0.0019,0.002,0.0021,0.0022,0.0023,0,0.0508,0.0572,0.0633,0.0651,0.0696,0.0724,0.0748,0.0745,0.0776,0.0745,0.0753,0.0648,0.0607,0.0459,0.0286,0.0281,0.0103,0.0071,-0.0046,-0.0049,-0.0032,-0.0032,-0.0042,-0.0042,-0.0042,-0.0042,-0.0041,0,0.055,0.0601,0.0659,0.0694,0.0775,0.0784,0.0861,0.0862,0.088,0.0922,0.0826,0.0816,0.0611,0.0483,0.0314,0.0115,0.012,-0.0037,-0.0078,-0.0,0.0005,-0.0038,-0.0036,-0.0046,-0.0045,-0.0044,-0.0043,0,0.0577,0.0612,0.0693,0.0763,0.0797,0.0857,0.0957,0.1004,0.1008,0.1057,0.1053,0.0944,0.0773,0.0555,0.0313,0.0165,-0.0032,-0.0106,0.0001,-0.0032,-0.0158,-0.0151,-0.0244,-0.0246,-0.0247,-0.0248,-0.0249,0,0.0595,0.0638,0.0752,0.0815,0.0856,0.0953,0.102,0.1067,0.1125,0.1133,0.1152,0.1014,0.0907,0.0563,0.032,-0.001,-0.0063,-0.0168,-0.0173,-0.0148,-0.0179,-0.017,-0.0162,-0.0251,-0.0251,-0.0252,-0.0252,0,0.0629,0.0671,0.074,0.0872,0.0965,0.1079,0.1178,0.1229,0.1275,0.128,0.1238,0.1056,0.0859,0.0574,0.0316,0.0077,-0.0102,-0.0182,-0.0182,-0.0188,-0.0158,-0.0185,-0.0175,-0.0256,-0.0256,-0.0255,-0.0255,0,0.0654,0.0709,0.0805,0.0923,0.1045,0.1161,0.1218,0.128,0.1335,0.1333,0.1314,0.1099,0.0977,0.0619,0.0382,0.0143,0.0074,-0.0011,-0.0021,-0.0019,0.0069,0.0142,0.0104,0,0,0,0,0,0.0672,0.0739,0.085,0.0982,0.1104,0.1187,0.1301,0.1343,0.1384,0.1368,0.1348,0.1164,0.0814,0.0664,0.0422,0.0334,0.0017,0.0039,-0.0089,-0.0281,-0.0276,-0.0213,0,0,0,0,0,0,0.0685,0.0784,0.0845,0.1006,0.1109,0.1253,0.1333,0.1367,0.136,0.1359,0.1182,0.1097,0.0759,0.0959,0.0419,0.0345,0.0227,-0.012,-0.0126,-0.0284,-0.0279,-0.0275,-0.0209,0,0,0,0,0]}]]